Date String (YYYY-MM-DD hh:mm:ss) UTC,Instrument flags,Ambient pressure (hPa),Sample flow (lpm),Bypass flow (lpm),Sample temperature (°C),Ambient temperature (°C),ASC tube jacket temperature (°C),LED temperature (°C),Box temperature (°C),Sample RH (%),Span deviation,Mass concentration (μg/m³),Mass concentration (μg/m³),Mass concentration (μg/m³)
DateTimeUTC,F1_M11,P_M11,Q1_M11,Q2_M11,T1_M11,T2_M11,T3_M11,T4_M11,T5_M11,U1_M11,ZSPAN_M11,X0_M11,X2_M11,X1_M11
2022-04-11 01:00:00,,0816.6,5.01,0.00,23.0,22.1,00.0,32.1,24.8,05.0,0000.0,0011.36,0004.44,0002.70
2022-04-11 01:01:00,,0816.6,5.00,0.00,23.0,22.1,00.0,32.1,24.8,04.9,0000.0,0011.88,0004.38,0002.69
2022-04-11 01:02:00,,0816.7,5.00,0.00,23.0,22.1,00.0,32.0,24.7,05.0,0000.0,0012.32,0004.44,0002.71
2022-04-11 01:03:00,,0816.6,5.01,0.00,23.0,22.1,00.0,32.0,24.7,05.1,0000.0,0012.03,0004.43,0002.71
2022-04-11 01:04:00,,0816.8,4.99,0.00,23.0,22.1,00.0,32.0,24.7,05.0,0000.0,0011.90,0004.42,0002.71
2022-04-11 01:05:00,,0816.6,5.00,0.00,23.0,22.1,00.0,32.0,24.7,05.0,0000.0,0012.23,0004.41,0002.69
2022-04-11 01:06:00,,0816.5,5.00,0.00,23.0,22.1,00.0,32.0,24.6,05.1,0000.0,0012.32,0004.41,0002.71
2022-04-11 01:07:00,,0816.7,5.00,0.00,23.0,22.1,00.0,32.0,24.5,05.1,0000.0,0012.81,0004.40,0002.71
2022-04-11 01:08:00,,0816.8,5.00,0.00,22.9,22.1,00.0,32.0,24.6,05.1,0000.0,0012.66,0004.39,0002.70
2022-04-11 01:09:00,,0816.6,5.00,0.00,22.9,22.0,00.0,32.0,24.6,05.0,0000.0,0012.57,0004.41,0002.70
2022-04-11 01:10:00,,0816.6,5.01,0.00,23.0,22.0,00.0,32.0,24.7,05.0,0000.0,0012.41,0004.39,0002.70
2022-04-11 01:11:00,,0816.6,5.01,0.00,22.9,22.0,00.0,32.0,24.7,05.1,0000.0,0012.37,0004.38,0002.71
2022-04-11 01:12:00,,0816.6,5.00,0.00,22.9,22.0,00.0,32.0,24.6,05.1,0000.0,0011.69,0004.37,0002.71
2022-04-11 01:13:00,,0816.6,4.99,0.00,22.9,21.9,00.0,32.0,24.5,05.2,0000.0,0011.04,0004.31,0002.71
2022-04-11 01:14:00,,0816.5,4.99,0.00,22.9,21.9,00.0,32.0,24.6,05.2,0000.0,0011.15,0004.32,0002.70
2022-04-11 01:15:00,,0816.6,5.01,0.00,22.9,21.9,00.0,32.0,24.7,05.0,0000.0,0011.50,0004.33,0002.71
2022-04-11 01:16:00,,0816.6,5.00,0.00,22.9,21.9,00.0,32.0,24.6,05.1,0000.0,0011.35,0004.38,0002.73
2022-04-11 01:17:00,,0816.5,5.01,0.00,22.9,21.9,00.0,32.0,24.6,05.1,0000.0,0011.17,0004.40,0002.73
2022-04-11 01:18:00,,0816.6,5.00,0.00,22.9,21.9,00.0,32.0,24.7,05.1,0000.0,0010.93,0004.42,0002.73
2022-04-11 01:19:00,,0816.5,5.00,0.00,22.9,21.9,00.0,32.0,24.6,05.2,0000.0,0010.81,0004.38,0002.72
2022-04-11 01:20:00,,0816.6,5.00,0.00,22.9,22.0,00.0,31.9,24.6,05.1,0000.0,0011.38,0004.37,0002.72
2022-04-11 01:21:00,,0816.5,5.00,0.00,22.9,21.9,00.0,32.0,24.6,05.1,0000.0,0011.41,0004.34,0002.71
2022-04-11 01:22:00,,0816.5,5.00,0.00,22.9,21.9,00.0,31.9,24.6,05.0,0000.0,0011.83,0004.34,0002.70
2022-04-11 01:23:00,,0816.5,4.99,0.00,22.8,21.9,00.0,31.9,24.5,05.0,0000.0,0011.89,0004.38,0002.69
2022-04-11 01:24:00,,0816.5,5.00,0.00,22.8,21.9,00.0,31.9,24.4,05.1,0000.0,0012.48,0004.44,0002.69
2022-04-11 01:25:00,,0816.5,5.00,0.00,22.8,21.9,00.0,31.9,24.3,05.3,0000.0,0012.05,0004.33,0002.67
2022-04-11 01:26:00,,0816.5,5.00,0.00,22.8,21.8,00.0,31.9,24.4,05.3,0000.0,0012.29,0004.31,0002.67
2022-04-11 01:27:00,,0816.5,5.01,0.00,22.8,21.8,00.0,31.9,24.4,05.3,0000.0,0012.20,0004.25,0002.65
2022-04-11 01:28:00,,0816.5,5.01,0.00,22.8,21.8,00.0,31.9,24.3,05.3,0000.0,0012.15,0004.22,0002.62
2022-04-11 01:29:00,,0816.5,5.01,0.00,22.8,21.8,00.0,31.9,24.4,05.3,0000.0,0012.27,0004.20,0002.60
2022-04-11 01:30:00,,0816.4,5.00,0.00,22.8,21.8,00.0,31.9,24.3,05.2,0000.0,0012.40,0004.22,0002.61
2022-04-11 01:31:00,,0816.4,5.00,0.00,22.8,21.7,00.0,31.9,24.4,05.2,0000.0,0012.00,0004.22,0002.63
2022-04-11 01:32:00,,0816.4,4.99,0.00,22.8,21.7,00.0,31.9,24.5,05.1,0000.0,0011.87,0004.22,0002.64
2022-04-11 01:33:00,,0816.4,5.00,0.00,22.8,21.7,00.0,31.9,24.6,05.1,0000.0,0011.42,0004.19,0002.63
2022-04-11 01:34:00,,0816.4,5.01,0.00,22.8,21.7,00.0,31.9,24.6,05.1,0000.0,0011.11,0004.17,0002.62
2022-04-11 01:35:00,,0816.4,5.01,0.00,22.8,21.7,00.0,31.8,24.5,05.0,0000.0,0010.67,0004.14,0002.60
2022-04-11 01:36:00,,0816.3,4.99,0.00,22.8,21.7,00.0,31.8,24.5,04.9,0000.0,0011.33,0004.23,0002.61
2022-04-11 01:37:00,,0816.4,5.00,0.00,22.7,21.7,00.0,31.8,24.5,05.0,0000.0,0011.06,0004.24,0002.60
2022-04-11 01:38:00,,0816.4,4.99,0.00,22.7,21.7,00.0,31.8,24.4,05.0,0000.0,0011.08,0004.25,0002.59
2022-04-11 01:39:00,,0816.4,5.00,0.00,22.7,21.7,00.0,31.8,24.3,05.2,0000.0,0011.63,0004.28,0002.60
2022-04-11 01:40:00,,0816.6,5.02,0.00,22.7,21.7,00.0,31.8,24.4,05.1,0000.0,0011.79,0004.30,0002.60
2022-04-11 01:41:00,,0816.4,4.99,0.00,22.7,21.7,00.0,31.8,24.4,05.1,0000.0,0012.05,0004.33,0002.60
2022-04-11 01:42:00,,0816.3,4.99,0.00,22.7,21.7,00.0,31.8,24.4,05.2,0000.0,0011.91,0004.35,0002.58
2022-04-11 01:43:00,,0816.4,5.01,0.00,22.7,21.6,00.0,31.8,24.4,05.0,0000.0,0011.97,0004.37,0002.58
2022-04-11 01:44:00,,0816.4,5.01,0.00,22.6,21.6,00.0,31.7,24.4,05.0,0000.0,0012.00,0004.38,0002.58
2022-04-11 01:45:00,,0816.4,5.00,0.00,22.6,21.6,00.0,31.7,24.3,05.0,0000.0,0012.05,0004.42,0002.58
2022-04-11 01:46:00,,0816.5,5.00,0.00,22.6,21.6,00.0,31.7,24.3,05.1,0000.0,0011.98,0004.37,0002.58
2022-04-11 01:47:00,,0816.4,4.99,0.00,22.6,21.6,00.0,31.7,24.2,05.3,0000.0,0011.86,0004.31,0002.56
2022-04-11 01:48:00,,0816.4,4.99,0.00,22.6,21.6,00.0,31.7,24.2,05.2,0000.0,0011.41,0004.29,0002.53
2022-04-11 01:49:00,,0816.4,5.00,0.00,22.6,21.6,00.0,31.7,24.2,05.3,0000.0,0011.67,0004.29,0002.52
2022-04-11 01:50:00,,0816.4,4.99,0.00,22.6,21.6,00.0,31.7,24.2,05.2,0000.0,0012.41,0004.28,0002.50
2022-04-11 01:51:00,,0816.4,5.01,0.00,22.6,21.6,00.0,31.7,24.3,05.1,0000.0,0012.50,0004.27,0002.51
2022-04-11 01:52:00,,0816.4,4.99,0.00,22.6,21.6,00.0,31.7,24.2,05.3,0000.0,0012.44,0004.24,0002.51
2022-04-11 01:53:00,,0816.3,5.00,0.00,22.6,21.6,00.0,31.7,24.3,05.2,0000.0,0012.49,0004.18,0002.51
2022-04-11 01:54:00,,0816.4,5.02,0.00,22.6,21.6,00.0,31.7,24.3,05.1,0000.0,0012.43,0004.19,0002.52
2022-04-11 01:55:00,,0816.4,5.00,0.00,22.5,21.6,00.0,31.6,24.3,05.1,0000.0,0012.61,0004.22,0002.51
2022-04-11 01:56:00,,0816.4,5.00,0.00,22.5,21.6,00.0,31.6,24.2,05.1,0000.0,0012.91,0004.14,0002.49
2022-04-11 01:57:00,,0816.2,4.99,0.00,22.5,21.6,00.0,31.6,24.2,05.1,0000.0,0013.35,0004.11,0002.49
2022-04-11 01:58:00,,0816.2,5.00,0.00,22.5,21.5,00.0,31.6,24.3,05.0,0000.0,0013.14,0004.11,0002.50
2022-04-11 01:59:00,,0816.3,5.01,0.00,22.5,21.5,00.0,31.6,24.2,05.0,0000.0,0013.09,0004.14,0002.51
